EW3394 Weather Reports


time (UTC)temp
C
wind
direction
speed
KPH
gust
KPH
rain 1hr
cm
rain 24hr
cm
rain mn
cm
humidity
%
barometer
mb
20260504081516 7 231 1.6 11.3 0.00 0.00 0.00 64 1010.6
20260504050011 5 325 0.0 4.8 0.00 0.00 0.00 82 1011.0
20260504044518 5 327 0.0 1.6 0.00 0.00 0.00 82 1011.1
20260504043004 5 327 0.0 0.0 0.00 0.00 0.00 83 1011.0
20260504041505 5 327 0.0 0.0 0.00 0.00 0.00 83 1011.1
20260504040022 4 326 0.0 0.0 0.00 0.00 0.00 81 1011.0
20260504034515 4 327 0.0 0.0 0.00 0.00 0.00 82 1010.9
20260504033022 3 327 0.0 0.0 0.00 0.00 0.00 81 1011.0
20260504031525 4 327 0.0 0.0 0.00 0.00 0.00 78 1010.9
20260504030010 5 327 0.0 3.2 0.00 0.00 0.00 75 1010.8
20260504024513 5 324 0.0 1.6 0.00 0.00 0.00 73 1010.8
20260504023018 5 323 0.0 3.2 0.00 0.00 0.00 72 1010.9
20260504021523 6 327 0.0 3.2 0.00 0.00 0.00 70 1011.0
20260504020024 6 327 0.0 3.2 0.00 0.00 0.00 71 1011.1
20260504014518 6 327 0.0 3.2 0.00 0.00 0.00 68 1011.1
20260504013014 6 327 0.0 3.2 0.00 0.00 0.00 66 1011.0
20260504011518 6 327 0.0 3.2 0.00 0.00 0.00 64 1010.9
20260504010021 7 327 0.0 1.6 0.00 0.00 0.00 61 1010.6
20260504004538 8 327 0.0 1.6 0.00 0.00 0.00 57 1010.3
20260504003012 10 329 0.0 3.2 0.00 0.00 0.00 54 1010.1
20260504001516 11 311 0.0 3.2 0.00 0.00 0.00 42 1010.1
20260504000021 12 360 1.6 6.4 0.00 0.00 0.00 40 1009.9
20260503234523 12 360 1.6 11.3 0.00 0.00 0.00 38 1009.7
20260503233026 13 321 4.8 17.7 0.00 0.00 0.00 36 1009.6
20260503231509 13 315 3.2 14.5 0.00 0.00 0.00 34 1009.6
20260503230015 13 5 1.6 12.9 0.00 0.00 0.00 33 1009.3
20260503224518 13 338 1.6 12.9 0.00 0.00 0.00 32 1009.2
20260503223024 13 342 4.8 16.1 0.00 0.00 0.00 29 1009.2
20260503221527 13 291 6.4 19.3 0.00 0.00 0.00 28 1009.1
20260503220014 13 298 9.7 22.5 0.00 0.00 0.00 28 1009.0
20260503214518 13 360 6.4 20.9 0.00 0.00 0.00 29 1009.1
20260503213021 13 350 12.9 24.1 0.00 0.00 0.00 30 1009.0
20260503211525 13 294 6.4 24.1 0.00 0.00 0.00 32 1009.0
20260503210025 13 32 8.0 20.9 0.00 0.00 0.00 31 1009.0
20260503204525 13 219 6.4 25.7 0.00 0.00 0.00 32 1008.9
20260503203020 13 293 12.9 20.9 0.00 0.00 0.00 33 1009.1
20260503201523 13 310 9.7 19.3 0.00 0.00 0.00 33 1009.3
20260503200026 13 360 8.0 19.3 0.00 0.00 0.00 34 1009.4
20260503194531 12 321 9.7 20.9 0.00 0.00 0.00 39 1009.5
20260503193034 12 54 9.7 20.9 0.00 0.00 0.00 38 1010.0
20260503191522 12 360 8.0 20.9 0.00 0.00 0.00 41 1010.1
20260503190008 11 360 8.0 24.1 0.00 0.00 0.00 40 1010.2
20260503184512 11 17 9.7 29.0 0.00 0.00 0.00 38 1010.5
20260503183014 10 39 11.3 20.9 0.00 0.00 0.00 41 1010.7
20260503181520 10 304 9.7 27.4 0.00 0.00 0.00 40 1010.7
20260503180026 10 352 11.3 25.7 0.00 0.00 0.00 41 1010.6
20260503174507 10 319 9.7 27.4 0.00 0.00 0.00 41 1010.6
20260503173020 10 58 11.3 25.7 0.00 0.00 0.00 39 1010.7
20260503171522 10 327 8.0 22.5 0.00 0.00 0.00 42 1010.7